[[{"header":{"parameterUnit":"m.s-1","parameterCategory":1,"la1":30.2991,"la2":30.254,"lo1":-89.0895,"lo2":-89.0444,"dy":0.0017,"dx":0.0017,"nx":28,"ny":28,"refTime":"2025-08-07T21:00:00:Z","depth":0,"parameterNumber":2,"parameterNumberName":"U-component_of_WINDS"},"data":[0,0,0,0,0,0,0,0,0,0,0,0,0,0,0,0,0,0,0,0,0,0,0,0,0,0,0,0,0,0,0,0,0,0,0,0,0,0,0,0,0,0,0,0,0,0,0,0,0,0,0,0,0,0,0,0,0,0,-1.8827,-1.8827,0,-1.8815,-1.8815,-1.8815,-1.8759,-1.8758,-1.8757,-1.8755,-1.8744,-1.8745,-1.8746,0,0,0,0,0,0,0,0,0,0,0,0,0,-1.8804,-1.8804,-1.8827,-1.8827,-1.8827,-1.8815,-1.8815,-1.8815,-1.8759,-1.8758,-1.8756,-1.8755,-1.8744,-1.8745,-1.8746,0,0,0,0,0,0,0,0,0,0,0,0,0,-1.8805,-1.8805,-1.8827,-1.8798,-1.8795,-1.8815,-1.8815,-1.8815,-1.876,-1.8758,-1.8756,-1.8754,-1.8744,-1.8745,-1.8746,-1.8795,0,0,-1.8751,-1.8751,0,0,0,0,0,0,0,0,-1.8805,-1.8806,-1.8802,-1.88,-1.8797,-1.8787,-1.8803,-1.8808,-1.876,-1.8773,-1.8755,-1.8753,-1.876,-1.876,-1.8762,-1.8794,-1.8794,-1.8751,-1.8752,-1.8752,-1.8753,0,0,0,0,0,0,0,-1.8805,-1.8806,-1.8822,-1.8802,-1.8799,-1.8786,-1.8784,-1.8804,-1.8778,-1.8772,-1.8768,-1.8767,-1.8758,-1.8761,-1.8761,-1.8793,-1.8751,-1.8752,-1.8753,-1.8753,-1.8865,-1.8867,0,0,0,0,0,0,-1.8809,-1.8807,-1.8823,-1.8822,-1.8796,-1.8788,-1.8786,-1.8792,-1.8777,-1.8773,-1.8769,-1.8765,-1.8759,-1.876,-1.8761,-1.8816,-1.8752,-1.8754,-1.8754,-1.8863,-1.8866,-1.8868,0,0,0,0,0,0,-1.8809,-1.8811,-1.8823,-1.8813,-1.8814,-1.879,-1.8798,-1.8793,-1.8795,-1.8775,-1.877,-1.8776,-1.8758,-1.8759,-1.8787,-1.8815,-1.8754,-1.8755,-1.886,-1.8864,-1.8867,-1.8927,0,0,0,0,0,0,-1.8808,-1.8811,-1.8828,-1.8814,-1.8815,-1.8849,-1.88,-1.8794,-1.8798,-1.8792,-1.8781,-1.8777,-1.8756,-1.8785,-1.8788,-1.8816,-1.8757,-1.8858,-1.8862,-1.8866,-1.8922,-1.8932,-1.894,0,0,0,0,0,-1.8808,-1.8846,-1.883,-1.8832,-1.8836,-1.885,-1.8851,-1.8826,-1.88,-1.8818,-1.8805,-1.8777,-1.8812,-1.8788,-1.8791,-1.882,-1.8856,-1.8861,-1.8865,-1.8918,-1.893,-1.894,0,0,0,0,0,0,-1.8864,-1.8843,-1.8825,-1.886,-1.8857,-1.8841,-1.8862,-1.8839,-1.8844,-1.8838,-1.8808,-1.8806,-1.8838,-1.8832,-1.8806,-1.8866,-1.8829,-1.8835,-1.8868,-1.8879,-1.8888,-1.8888,-1.8758,0,0,0,0,0,-1.8881,-1.8894,-1.8875,-1.8908,-1.8908,-1.8886,-1.8891,-1.8872,-1.8869,-1.8867,-1.8856,-1.8854,-1.8865,-1.8872,-1.888,-1.8922,-1.8919,-1.8943,-1.8952,-1.896,-1.8964,-1.8986,-1.8996,-1.8884,-1.8884,-1.8883,0,0,-1.8915,-1.8905,-1.8915,-1.8919,-1.8915,-1.893,-1.8885,-1.8902,-1.8913,-1.887,-1.8895,-1.8888,-1.8883,-1.8918,-1.8933,-1.8914,-1.8995,-1.8966,-1.8972,-1.8972,-1.8992,-1.9003,-1.9012,-1.8887,-1.8886,-1.8886,0,0,-1.8984,-1.8979,-1.9005,-1.9002,-1.8996,-1.8982,-1.8989,-1.8976,-1.8969,-1.8994,-1.8962,-1.8976,-1.8994,-1.8992,-1.8994,-1.9066,-1.904,-1.907,-1.9115,-1.9136,-1.9145,-1.9153,-1.9177,-1.9187,-1.9075,-1.9075,-1.9075,0,-1.9027,-1.9047,-1.9021,-1.9041,-1.9044,-1.9007,-1.9033,-1.9032,-1.903,-1.9033,-1.9012,-1.9035,-1.9029,-1.9063,-1.9081,-1.9084,-1.9091,-1.9069,-1.9146,-1.9153,-1.916,-1.9183,-1.9193,-1.9078,-1.9078,-1.9077,-1.9077,0,-1.91,-1.9115,-1.9137,-1.9136,-1.9142,-1.9165,-1.9143,-1.9152,-1.9134,-1.9122,-1.9149,-1.9142,-1.9148,-1.9155,-1.9138,-1.9187,-1.9176,-1.9151,-1.9113,-1.9175,-1.9196,-1.9205,-1.9083,-1.9082,-1.9081,-1.908,0,0,-1.9201,-1.9187,-1.9196,-1.9195,-1.9187,-1.9198,-1.9221,-1.9227,-1.9235,-1.9236,-1.9254,-1.9272,-1.9249,-1.9251,-1.9234,-1.9253,-1.9309,-1.9226,-1.9225,-1.924,-1.9363,-1.938,-1.9391,-1.9294,-1.9295,-1.9297,-1.9363,0,-1.9266,-1.9302,-1.9281,-1.9321,-1.9334,-1.9301,-1.932,-1.9318,-1.9309,-1.9319,-1.9309,-1.9321,-1.9291,-1.9292,-1.931,-1.9299,-1.9333,-1.9294,-1.931,-1.931,-1.9309,-1.9402,-1.942,-1.9483,-1.9371,-1.9373,-1.9374,0,-1.9346,-1.935,-1.9391,-1.9382,-1.9387,-1.9405,-1.9409,-1.942,-1.9418,-1.941,-1.9413,-1.9391,-1.9413,-1.9378,-1.9408,-1.9382,-1.9388,-1.9384,-1.9386,-1.9384,-1.9344,-1.9402,-1.9502,-1.9511,-1.9387,-1.9386,-1.9385,0,-1.9414,-1.9431,-1.9457,-1.9458,-1.9448,-1.9461,-1.9458,-1.9454,-1.946,-1.9464,-1.9468,-1.9475,-1.9479,-1.9486,-1.9467,-1.9443,-1.95,-1.9463,-1.9493,-1.9494,-1.9504,-1.9503,-1.9605,-1.9512,-1.9512,-1.9511,-1.9511,0,-1.9488,-1.9514,-1.9488,-1.9504,-1.9533,-1.9509,-1.9538,-1.9532,-1.9529,-1.9543,-1.9516,-1.9531,-1.9506,-1.9518,-1.9504,-1.9531,-1.9534,-1.9527,-1.9523,-1.9529,-1.9529,-1.953,-1.9525,-1.9514,-1.9513,-1.9513,-1.9512,0,-1.9568,-1.9551,-1.9578,-1.9567,-1.9565,-1.9587,-1.9578,-1.9593,-1.9582,-1.9601,-1.9605,-1.9588,-1.9601,-1.9584,-1.9596,-1.9587,-1.9623,-1.9613,-1.9623,-1.962,-1.9651,-1.9647,-1.9755,-1.9768,-1.9668,-1.9669,-1.967,0,-1.9614,-1.9634,-1.9626,-1.9633,-1.9632,-1.9645,-1.965,-1.9629,-1.9636,-1.9636,-1.9652,-1.9663,-1.967,-1.9694,-1.9683,-1.9692,-1.9681,-1.9718,-1.9682,-1.9687,-1.968,-1.9678,-1.968,-1.9725,-1.9726,-1.9727,-1.9728,0,-1.9699,-1.969,-1.9699,-1.9706,-1.9714,-1.9719,-1.9721,-1.9729,-1.9707,-1.9717,-1.973,-1.9736,-1.9749,-1.976,-1.9767,-1.9764,-1.9743,-1.974,-1.9747,-1.9752,-1.9757,-1.9753,-1.9642,-1.9737,-1.9736,-1.9735,-1.9735,-1.9734,-1.9762,-1.9778,-1.9775,-1.9786,-1.9786,-1.979,-1.9803,-1.9795,-1.9806,-1.9814,-1.9801,-1.9818,-1.9817,-1.9824,-1.9824,-1.9837,-1.9821,-1.9832,-1.9834,-1.9837,-1.9841,-1.9757,-1.9839,-1.9838,-1.9838,-1.9838,-1.9838,0,-1.9844,-1.9841,-1.9852,-1.9856,-1.9866,-1.9846,-1.9848,-1.9857,-1.9872,-1.9873,-1.9881,-1.9898,-1.9909,-1.99,-1.991,-1.9923,-1.9913,-1.9926,-1.9923,-1.9923,-1.9855,-1.9847,-1.9933,-1.9933,-1.9933,-1.9933,-1.9933,-1.9933,-1.9888,-1.9913,-1.9905,-1.993,-1.9927,-1.9943,-1.9946,-1.995,-1.995,-1.9969,-1.9979,-1.9973,-1.997,-1.998,-1.999,-1.9987,-1.9991,-2.0008,-2.0001,-1.9937,-1.9928,-1.9919,-1.9911,-2.0009,-2.0009,-2.0068,-2.0068,-2.0069]},{"header":{"parameterUnit":"m.s-1","parameterCategory":1,"la1":30.2991,"la2":30.254,"lo1":-89.0895,"lo2":-89.0444,"dy":0.0017,"dx":0.0017,"nx":28,"ny":28,"refTime":"2025-08-07T21:00:00:Z","depth":0,"parameterNumber":3,"parameterNumberName":"V-component_of_WINDS"},"data":[0,0,0,0,0,0,0,0,0,0,0,0,0,0,0,0,0,0,0,0,0,0,0,0,0,0,0,0,0,0,0,0,0,0,0,0,0,0,0,0,0,0,0,0,0,0,0,0,0,0,0,0,0,0,0,0,0,0,0.4207,0.4206,0,0.414,0.4139,0.4138,0.4067,0.4066,0.4065,0.4064,0.3997,0.3996,0.3995,0,0,0,0,0,0,0,0,0,0,0,0,0,0.4274,0.4273,0.4207,0.4206,0.4205,0.414,0.4139,0.4138,0.4067,0.4066,0.4064,0.4063,0.3997,0.3996,0.3995,0,0,0,0,0,0,0,0,0,0,0,0,0,0.423,0.4273,0.4207,0.4162,0.4157,0.414,0.4139,0.4138,0.4067,0.4066,0.4064,0.4063,0.3997,0.3996,0.3995,0.4017,0,0,0.3991,0.399,0,0,0,0,0,0,0,0,0.4233,0.4228,0.4169,0.4165,0.416,0.411,0.4138,0.4097,0.4068,0.4101,0.4064,0.4062,0.4036,0.4031,0.4022,0.4014,0.4011,0.3991,0.399,0.3989,0.3989,0,0,0,0,0,0,0,0.4236,0.423,0.418,0.4169,0.4163,0.4145,0.4137,0.413,0.4078,0.4098,0.4093,0.4086,0.4033,0.4023,0.402,0.401,0.3991,0.399,0.3989,0.3988,0.4015,0.4016,0,0,0,0,0,0,0.4246,0.4233,0.4182,0.4178,0.4193,0.4145,0.4136,0.4128,0.4078,0.4069,0.4087,0.4083,0.4026,0.4021,0.4017,0.4038,0.3989,0.3988,0.3987,0.4013,0.4015,0.4016,0,0,0,0,0,0,0.4247,0.4242,0.4185,0.4204,0.4196,0.4145,0.4136,0.4127,0.4117,0.4069,0.406,0.4087,0.4025,0.4019,0.4017,0.4035,0.3988,0.3986,0.4011,0.4014,0.4016,0.4082,0,0,0,0,0,0,0.425,0.4243,0.4251,0.4205,0.4195,0.4186,0.4138,0.4127,0.4115,0.4109,0.4067,0.4058,0.4023,0.4019,0.4016,0.4032,0.3985,0.401,0.4012,0.4015,0.4078,0.4087,0.4094,0,0,0,0,0,0.4252,0.4273,0.4252,0.4246,0.4204,0.4188,0.4182,0.4141,0.4117,0.4124,0.4093,0.406,0.4034,0.402,0.4015,0.4032,0.4008,0.4012,0.4015,0.4075,0.4085,0.4093,0,0,0,0,0,0,0.4324,0.4267,0.4242,0.4249,0.4223,0.4176,0.4184,0.4153,0.4134,0.4129,0.4079,0.407,0.4074,0.4052,0.4038,0.405,0.4016,0.4019,0.4063,0.4073,0.408,0.4085,0.3984,0,0,0,0,0,0.434,0.4332,0.4282,0.4293,0.4281,0.4235,0.4226,0.4196,0.4168,0.4158,0.4126,0.4101,0.4086,0.4078,0.4063,0.4075,0.4064,0.4084,0.4092,0.4098,0.4101,0.4104,0.4112,0.4027,0.4027,0.4027,0,0,0.4375,0.4342,0.434,0.4306,0.4283,0.4275,0.4227,0.4221,0.4214,0.4157,0.4152,0.4129,0.4097,0.4101,0.4102,0.4084,0.4122,0.4102,0.4108,0.4107,0.4108,0.4116,0.4123,0.403,0.4029,0.4029,0,0,0.4433,0.4408,0.4413,0.439,0.4355,0.4324,0.4325,0.4282,0.4263,0.4258,0.4214,0.4206,0.4183,0.4161,0.4147,0.4195,0.4162,0.4191,0.4231,0.4234,0.4241,0.4247,0.4262,0.4269,0.4194,0.4194,0.4194,0,0.448,0.4466,0.442,0.4416,0.4402,0.4348,0.4353,0.4333,0.4296,0.4287,0.4267,0.4236,0.4211,0.4208,0.422,0.4211,0.421,0.4196,0.4244,0.4249,0.4254,0.4268,0.4274,0.4198,0.4197,0.4197,0.4197,0,0.4525,0.4515,0.4524,0.4487,0.4474,0.4475,0.4428,0.4421,0.4391,0.4362,0.4356,0.4324,0.43,0.4297,0.427,0.4291,0.428,0.4253,0.4218,0.4266,0.4278,0.4284,0.4203,0.4202,0.4201,0.42,0,0,0.4628,0.4564,0.4568,0.4549,0.4506,0.4498,0.4495,0.447,0.4464,0.444,0.4435,0.4416,0.439,0.4374,0.4343,0.4346,0.4384,0.4318,0.4316,0.433,0.4403,0.4424,0.4431,0.4362,0.4363,0.4364,0.4406,0,0.4677,0.4669,0.4626,0.463,0.462,0.4568,0.4566,0.4539,0.4511,0.4498,0.4467,0.4454,0.4421,0.4411,0.4411,0.4379,0.4398,0.4376,0.4357,0.4357,0.4366,0.4438,0.446,0.4501,0.4411,0.4411,0.4412,0,0.4735,0.4712,0.4714,0.4669,0.4663,0.4662,0.4634,0.4623,0.4591,0.457,0.4552,0.4516,0.451,0.4477,0.4467,0.4453,0.4443,0.4426,0.4426,0.4423,0.4387,0.4436,0.4514,0.452,0.442,0.4419,0.4418,0,0.4808,0.4778,0.4775,0.4761,0.4708,0.4708,0.4686,0.4652,0.464,0.4616,0.4607,0.4584,0.4571,0.4553,0.4512,0.4493,0.4506,0.4471,0.4488,0.449,0.4494,0.4494,0.4571,0.4489,0.4489,0.4488,0.4488,0,0.4868,0.4871,0.4807,0.4805,0.4806,0.4758,0.4761,0.4734,0.4704,0.4695,0.465,0.4643,0.4589,0.4576,0.4544,0.4539,0.4534,0.4517,0.4508,0.4521,0.4523,0.4513,0.4509,0.449,0.449,0.4489,0.4489,0,0.495,0.4907,0.49,0.485,0.4837,0.4841,0.4798,0.4794,0.4762,0.4752,0.4747,0.4698,0.468,0.4637,0.4608,0.4586,0.459,0.4575,0.4601,0.4595,0.4615,0.4613,0.4688,0.4694,0.4609,0.461,0.4611,0,0.4991,0.4992,0.4941,0.4932,0.4911,0.4897,0.4883,0.4835,0.4822,0.4784,0.4785,0.4763,0.4742,0.4716,0.4678,0.4655,0.4638,0.4666,0.4634,0.4646,0.4637,0.4637,0.4637,0.4673,0.4674,0.4675,0.4676,0,0.5068,0.5046,0.5027,0.5001,0.4985,0.4962,0.4937,0.4932,0.4877,0.4865,0.4845,0.483,0.4799,0.4778,0.4748,0.4725,0.4691,0.4685,0.4688,0.4701,0.4715,0.4707,0.4619,0.4684,0.4683,0.4683,0.4682,0.4682,0.5129,0.5127,0.509,0.5071,0.5046,0.5023,0.5016,0.4983,0.4965,0.4936,0.4908,0.4891,0.4857,0.4814,0.4793,0.4779,0.4761,0.4766,0.4767,0.4768,0.4773,0.4718,0.4773,0.4773,0.4773,0.4772,0.4772,0,0.5203,0.5176,0.5158,0.5123,0.5108,0.5075,0.5045,0.5034,0.5019,0.499,0.497,0.4947,0.4925,0.4885,0.4859,0.4855,0.4839,0.485,0.485,0.4845,0.4791,0.479,0.4864,0.4864,0.4864,0.4864,0.4864,0.4864,0.5239,0.5233,0.5206,0.5187,0.516,0.5142,0.5127,0.5105,0.5081,0.5057,0.5038,0.5011,0.4977,0.4948,0.4926,0.4915,0.4907,0.4924,0.4907,0.4858,0.4849,0.4841,0.484,0.4923,0.4923,0.4962,0.4963,0.4963]}]]